User: anonymous
Location: Caltech
(34.1382°N, 118.1253°W)
Time: 16:25:17
(UTC-07:00)
Language:

SEDSat Delta rocket - Orbit

View from above orbital plane
View from above orbital plane
View from above satellite
View from above satellite

Ground track
Ground track

The orbit data is extracted from the following two-line orbital elements,

1 25510U 98061C   14243.43556806  .00000812  00000-0  13587-3 0  9424
2 25510 031.4333 230.7813 0332904 035.1160 104.2571 14.35831050830408
Epoch (UTC): 31 August 2014 10:27:13
Eccentricity: 0.0332904
inclination: 31.4333°
perigee height: 534 km
apogee height: 1010 km
right ascension of ascending node: 230.7813°
argument of perigee: 35.1160°
revolutions per day: 14.35831050
mean anomaly at epoch: 104.2571°
orbit number at epoch: 83040

The dashed part of the orbit path shows where the satellite is in the earth's shadow,  

DLR